7 * 24
多渠道服务支持
COSMOS 2080是苏联(CIS)于1990年5月19日发射的GLONASS系列导航卫星,归属苏联/俄罗斯“宇宙号”(COSMOS)卫星家族,该家族是全球规模最大的多用途卫星集群,多数承担军事相关任务。作为第一代GLONASS导航卫星,它采用三轴稳定设计,质量约1400千克,设计轨道寿命5年,运行在高度约19000km的中圆轨道,为格洛纳斯系统早期组网提供导航支持,是苏联冷战时期打破GPS垄断布局的重要组成。
俄罗斯(独联体)
(CIS)
| 数据来源 | 国际轨道数据 |
| 星历时间: | 2026-09-11T14:06:03+0800 9小时前 查看轨道信息 |
| 半长轴: | 25507.945km |
| 偏心率: | 0.0023095 |
| 轨道倾角: | 64.648° |
| 近地点辐角 | 26.979° |
| 升交点赤经 | 305.360° |
| 平近点角 | 342.267° |
| 近地点: | 19070.897km |
| 远地点: | 19188.719km |
| 周期: | 675.730分钟 |
| 每日圈数: | 2.13103 |